Northolt, United Kingdom

12:33 AM GMT on December 18, 2017 (GMT +0000)
Northolt Air Base

Weather History for EGWU - December, 2012

Change the Weather History Date:

Thursday, December 6, 2012

  Actual Average Record
Temperature  
Mean Temperature 33 °F -  
Max Temperature 42 °F 44 °F 57 °F (2007)
Min Temperature 24 °F 36 °F 24 °F (2012)
Degree Days  
Heating Degree Days 32    
Moisture  
Dew Point 30 °F    
Average Humidity 84    
Maximum Humidity 93    
Minimum Humidity 61    
Precipitation  
Precipitation 0.16 in - - ()
Sea Level Pressure  
Sea Level Pressure 29.89 in    
Wind  
Wind Speed 5 mph ()    
Max Wind Speed 18 mph    
Max Gust Speed -    
Visibility 8.8 miles    
Events Rain    
Averages and records for this station are not official NWS values.
T = Trace of Precipitation, MM = Missing Value Source: Averaged Metar Reports

Daily Weather History Graph

Daily Weather History Graph

Search for Another Location

Airport or City:

Trip Planner

Search our weather history database for the weather conditions in past years. The results will help you decide how hot, cold, wet, or windy it might be!

Date:

Astronomy

Dec. 06, 2012 Rise Set
Actual Time 7:52 AM GMT 3:53 PM GMT
Civil Twilight 7:12 AM GMT 4:33 PM GMT
Nautical Twilight 6:29 AM GMT 5:15 PM GMT
Astronomical Twilight 5:49 AM GMT 5:56 PM GMT
Moon No Moon Rise 11:58 AM GMT (12/6)
Length of Visible Light 9h 20m
Length of Day
8h 01m
Waning Gibbous, 52% of the Moon is Illuminated
Dec 6
Waning Gibbous
Dec 6
Last Quarter
Dec 13
New
Dec 20
First Quarter
Dec 28
Full

Hourly Weather History & Observations

Time (GMT) Temp. Windchill Dew Point Humidity Pressure Visibility Wind Dir Wind Speed Gust Speed Precip Events Conditions
12:50 AM 28.4 °F 24.6 °F 24.8 °F 86% 30.04 in 6.2 mi NNW 3.5 mph - N/A   Unknown
1:50 AM 30.2 °F 24.3 °F 26.6 °F 86% 30.04 in 6.2 mi WNW 5.8 mph - N/A   Unknown
2:50 AM 28 °F - 26 °F 87% 30.06 in 19 mi WSW 3.5 mph - -  
2:50 AM 28.4 °F 24.6 °F 26.6 °F 93% 30.04 in 6.2 mi WSW 3.5 mph - N/A   Unknown
3:50 AM 26.6 °F 20.0 °F 24.8 °F 93% 30.04 in 6.2 mi WNW 5.8 mph - N/A   Unknown
4:50 AM 26.6 °F - 24.8 °F 93% 30.04 in 6.2 mi WSW 2.3 mph - N/A   Unknown
5:50 AM 25 °F - 23 °F 88% 30.07 in 12 mi South 1.2 mph - -   Clear
5:50 AM 24.8 °F - 23.0 °F 93% 30.06 in - South 1.2 mph - N/A   Clear
6:50 AM 24.8 °F - 23.0 °F 93% 30.06 in - SSW 2.3 mph - N/A   Clear
7:50 AM 26.6 °F - 24.8 °F 93% 30.06 in - South 1.2 mph - N/A   Clear
8:50 AM 28 °F - 26 °F 86% 30.08 in 12 mi SW 2.3 mph - -   Mostly Cloudy
8:50 AM 28.4 °F - 24.8 °F 86% 30.06 in - SW 2.3 mph - N/A   Clear
9:50 AM 30.2 °F - 26.6 °F 86% 30.04 in - South 2.3 mph - N/A   Clear
10:50 AM 32.0 °F 28.7 °F 28.4 °F 87% 30.04 in - SSW 3.5 mph - N/A   Clear
11:50 AM 34 °F - 28 °F 72% 30.02 in 14 mi SSW 3.5 mph - -   Partly Cloudy
11:50 AM 33.8 °F 30.8 °F 28.4 °F 81% 30.01 in - SSW 3.5 mph - N/A   Clear
12:50 PM 35.6 °F 29.2 °F 26.6 °F 70% 29.98 in - SSW 8.1 mph - N/A   Clear
1:50 PM 35.6 °F 29.2 °F 26.6 °F 70% 29.95 in 6.2 mi SSW 8.1 mph - N/A   Overcast
2:50 PM 37 °F - 28 °F 61% 29.92 in 19 mi SSW 10.4 mph - -   Mostly Cloudy
2:50 PM 37.4 °F 30.3 °F 28.4 °F 70% 29.89 in 6.2 mi SSW 10.4 mph - N/A   Overcast
3:50 PM 37.4 °F 30.3 °F 32.0 °F 81% 29.86 in 6.2 mi SSW 10.4 mph - N/A   Overcast
4:50 PM 37.4 °F 31.4 °F 33.8 °F 87% 29.83 in 6.2 mi SSW 8.1 mph - N/A   Mostly Cloudy
5:50 PM 39 °F - 33 °F 73% 29.79 in 16 mi South 9.2 mph - -   Overcast
5:50 PM 39.2 °F 33.0 °F 33.8 °F 81% 29.77 in 6.2 mi South 9.2 mph - N/A   Overcast
6:50 PM 39.2 °F 32.5 °F 33.8 °F 81% 29.74 in 6.2 mi SSW 10.4 mph - N/A   Overcast
7:50 PM 39.2 °F 32.0 °F 35.6 °F 87% 29.68 in 6.2 mi SSW 11.5 mph - N/A Rain Light Rain
8:50 PM 39 °F - 36 °F 85% 29.65 in 14 mi SSW 12.7 mph - -   Mostly Cloudy
8:50 PM 39.2 °F 31.6 °F 35.6 °F 87% 29.62 in 6.2 mi SSW 12.7 mph - N/A   Mostly Cloudy
9:50 PM 39.2 °F 31.6 °F 37.4 °F 93% 29.56 in 6.2 mi SSW 12.7 mph - N/A   Overcast
10:50 PM 41.0 °F 33.1 °F 37.4 °F 87% 29.47 in 6.2 mi SSW 15.0 mph - N/A   Overcast
11:50 PM 42 °F - 38 °F 82% 29.47 in 6 mi WSW 18.4 mph - -   Overcast
11:50 PM 42.8 °F 34.5 °F 39.2 °F 87% 29.44 in 5.6 mi WSW 18.4 mph - N/A   Overcast